This is the latest recevied weather packets stored in our database for station/object KK7PZE-13. If no packets are shown the sender has not sent any weather packets the latest 10 day(s).
| Time | Temp. | Humidity | Pressure | Rain* | Wind** | Luminosity | Snow |
|---|---|---|---|---|---|---|---|
| 1777601762 | 26.67° C | 12% | 1005.5 hPa | 0 mm | - | - | - |
| 1777601396 | 26.67° C | 12% | 1005.4 hPa | 0 mm | - | - | - |
| 1777601160 | 26.67° C | 12% | 1005.4 hPa | 0 mm | - | - | - |
| 1777600561 | 27.22° C | 12% | 1005.4 hPa | 0 mm | - | - | - |
| 1777599359 | 27.22° C | 12% | 1005.4 hPa | 0 mm | - | - | - |
| 1777598759 | 27.78° C | 12% | 1005.3 hPa | 0 mm | - | - | - |
| 1777598159 | 27.78° C | 12% | 1005.3 hPa | 0 mm | - | - | - |
| 1777597559 | 27.78° C | 12% | 1005.4 hPa | 0 mm | - | - | - |
| 1777596960 | 28.33° C | 11% | 1005.4 hPa | 0 mm | - | - | - |
| 1777596359 | 28.89° C | 11% | 1005.4 hPa | 0 mm | - | - | - |
| 1777595761 | 28.33° C | 11% | 1005.4 hPa | 0 mm | - | - | - |
| 1777595509 | 28.89° C | 11% | 1005.3 hPa | 0 mm | - | - | - |
| 1777595159 | 28.89° C | 11% | 1005.3 hPa | 0 mm | - | - | - |
| 1777594653 | 28.89° C | 11% | 1005.3 hPa | 0 mm | - | - | - |
| 1777594559 | 28.89° C | 11% | 1005.3 hPa | 0 mm | - | - | - |
| 1777593959 | 29.44° C | 11% | 1005.4 hPa | 0 mm | - | - | - |
| 1777593359 | 30° C | 11% | 1005.6 hPa | 0 mm | - | - | - |
| 1777592159 | 28.89° C | 11% | 1005.7 hPa | 0 mm | - | - | - |
| 1777591559 | 29.44° C | 11% | 1005.6 hPa | 0 mm | - | - | - |
| 1777591113 | 29.44° C | 11% | 1005.7 hPa | 0 mm | - | - | - |
| 1777590962 | 29.44° C | 11% | 1005.7 hPa | 0 mm | - | - | - |
| 1777590359 | 30.56° C | 10% | 1005.8 hPa | 0 mm | - | - | - |
| 1777589759 | 30° C | 10% | 1006.2 hPa | 0 mm | - | - | - |
| 1777589162 | 30° C | 11% | 1006.1 hPa | 0 mm | - | - | - |
| 1777588559 | 30° C | 11% | 1006.4 hPa | 0 mm | - | - | - |
* Rain latest hour (hover to see other rain measurements)
** Current wind speed in m/s (hover to see current wind gust speed)